START_TIME,STEP,MOV.,M34,t_acc.,L5,t_acc.,L18,t_acc.,L14,t_acc.
1979-07-02 15:00:25.580 ,1,0,0.,12.0,0.,12.0,0.,12.0,0.,12.0
1979-07-02 15:00:37.580 ,1,0,0.,12.0,0.,12.0,0.,12.0,0.,12.0
1979-07-02 15:00:49.580 ,2,1,0.,12.0,0.,12.0,0.,12.0,0.,12.0
1979-07-02 15:01:01.580 ,2,1,0.,12.0,0.,12.0,0.,12.0,0.,12.0
1979-07-02 15:01:13.580 ,2,0,0.,12.0,0.,12.0,0.,12.0,0.,12.0
1979-07-02 15:01:25.580 ,2,0,0.,12.0,0.,12.0,0.,12.0,0.,12.0
1979-07-02 15:01:37.580 ,3,1,0.,12.0,0.,12.0,0.,12.0,0.,12.0
1979-07-02 15:01:49.580 ,3,1,0.,12.0,0.,12.0,0.,12.0,0.,12.0
1979-07-02 15:02:01.580 ,3,0,0.,12.0,0.,12.0,0.,12.0,0.,12.0
1979-07-02 15:02:13.580 ,3,0,0.,12.0,0.,12.0,0.,12.0,0.,12.0
1979-07-02 15:02:25.580 ,4,1,0.,12.0,0.,12.0,0.,12.0,0.,12.0
1979-07-02 15:02:37.580 ,4,1,0.,12.0,0.,12.0,0.,12.0,0.,12.0
1979-07-02 15:02:49.580 ,4,0,0.,12.0,0.,12.0,0.,12.0,0.,12.0
1979-07-02 15:03:01.580 ,4,0,0.,12.0,0.,12.0,0.,12.0,0.,12.0
1979-07-02 15:03:13.580 ,5,1,0.,12.0,0.,12.0,0.,12.0,0.,12.0
1979-07-02 15:03:25.580 ,5,1,0.,12.0,0.,12.0,0.,12.0,0.,12.0
1979-07-02 15:03:37.580 ,5,0,0.,12.0,0.,12.0,0.,12.0,0.,12.0
1979-07-02 15:03:49.580 ,5,0,0.,12.0,0.,12.0,0.,12.0,0.,12.0
1979-07-02 15:04:01.580 ,6,1,1.,12.0,0.,12.0,0.,12.0,0.,12.0
1979-07-02 15:04:13.580 ,6,1,0.,12.0,0.,12.0,0.,12.0,0.,12.0
1979-07-02 15:04:25.580 ,6,0,0.,12.0,0.,12.0,0.,12.0,0.,12.0
1979-07-02 15:04:37.580 ,6,0,0.,12.0,0.,12.0,0.,12.0,0.,12.0
1979-07-02 15:04:49.580 ,7,1,0.,12.0,0.,12.0,0.,12.0,0.,12.0
1979-07-02 15:05:01.580 ,7,1,0.,12.0,0.,12.0,0.,12.0,0.,12.0
1979-07-02 15:05:13.580 ,7,0,0.,12.0,0.,12.0,0.,12.0,0.,12.0
1979-07-02 15:05:25.580 ,7,0,0.,12.0,0.,12.0,0.,12.0,0.,12.0
1979-07-02 15:05:37.580 ,7,1,0.,12.0,0.,12.0,0.,12.0,0.,12.0
1979-07-02 15:05:49.580 ,7,1,0.,12.0,0.,12.0,0.,12.0,0.,12.0
1979-07-02 15:06:01.580 ,7,0,0.,12.0,0.,12.0,0.,12.0,0.,12.0
1979-07-02 15:06:13.580 ,7,0,0.,12.0,0.,12.0,0.,12.0,0.,12.0
1979-07-02 15:06:25.580 ,6,1,0.,12.0,0.,12.0,0.,12.0,0.,12.0
1979-07-02 15:06:37.580 ,6,1,0.,12.0,0.,12.0,0.,12.0,0.,12.0
1979-07-02 15:06:49.580 ,6,0,0.,12.0,0.,12.0,0.,12.0,0.,12.0
1979-07-02 15:07:01.580 ,6,0,0.,12.0,0.,12.0,0.,12.0,0.,12.0
1979-07-02 15:07:13.580 ,5,1,0.,12.0,0.,12.0,0.,12.0,0.,12.0
1979-07-02 15:07:25.580 ,5,1,0.,12.0,0.,12.0,0.,12.0,0.,12.0
1979-07-02 15:07:37.580 ,5,0,0.,12.0,0.,12.0,0.,12.0,0.,12.0
1979-07-02 15:07:49.580 ,5,0,0.,12.0,0.,12.0,0.,12.0,0.,12.0
1979-07-02 15:08:01.580 ,4,1,0.,12.0,0.,12.0,0.,12.0,0.,12.0
1979-07-02 15:08:13.580 ,4,1,0.,12.0,0.,12.0,0.,12.0,0.,12.0
1979-07-02 15:08:25.580 ,4,0,0.,12.0,0.,12.0,0.,12.0,0.,12.0
1979-07-02 15:08:37.580 ,4,0,0.,12.0,0.,12.0,0.,12.0,0.,12.0
1979-07-02 15:08:49.580 ,3,1,0.,12.0,0.,12.0,0.,12.0,0.,12.0
1979-07-02 15:09:01.580 ,3,1,0.,12.0,0.,12.0,0.,12.0,0.,12.0
1979-07-02 15:09:13.580 ,3,0,0.,12.0,0.,12.0,0.,12.0,0.,12.0
1979-07-02 15:09:25.580 ,3,0,0.,12.0,0.,12.0,0.,12.0,0.,12.0
1979-07-02 15:09:37.580 ,2,1,0.,12.0,0.,12.0,0.,12.0,0.,12.0
1979-07-02 15:09:49.580 ,2,1,0.,12.0,0.,12.0,0.,12.0,0.,12.0
1979-07-02 15:10:01.580 ,2,0,1.,12.0,0.,12.0,0.,12.0,0.,12.0
1979-07-02 15:10:13.580 ,2,0,1.,12.0,0.,12.0,0.,12.0,0.,12.0
1979-07-02 15:10:25.580 ,1,1,0.,12.0,0.,12.0,0.,12.0,0.,12.0
1979-07-02 15:10:37.580 ,1,1,0.,12.0,0.,12.0,0.,12.0,0.,12.0
1979-07-02 15:10:49.580 ,1,0,0.,12.0,0.,12.0,0.,12.0,0.,12.0
1979-07-02 15:11:01.580 ,1,0,0.,12.0,0.,12.0,0.,12.0,0.,12.0
1979-07-02 15:11:13.580 ,0,1,0.,12.0,0.,12.0,0.,12.0,0.,12.0
1979-07-02 15:11:25.580 ,0,1,0.,12.0,0.,12.0,0.,12.0,0.,12.0
1979-07-02 15:11:37.580 ,0,0,0.,12.0,0.,12.0,0.,12.0,0.,12.0
1979-07-02 15:11:49.580 ,0,0,0.,12.0,0.,12.0,0.,12.0,0.,12.0
1979-07-02 15:12:01.580 ,0,1,0.,12.0,0.,12.0,0.,12.0,0.,12.0
1979-07-02 15:12:13.580 ,0,1,0.,12.0,0.,12.0,0.,12.0,0.,12.0
1979-07-02 15:12:25.580 ,0,0,0.,12.0,0.,12.0,0.,12.0,0.,12.0
1979-07-02 15:12:37.580 ,0,0,0.,12.0,0.,12.0,0.,12.0,0.,12.0
1979-07-02 15:12:49.580 ,1,1,0.,12.0,0.,12.0,0.,12.0,0.,12.0
1979-07-02 15:13:01.580 ,1,1,0.,12.0,0.,12.0,0.,12.0,0.,12.0
1979-07-02 15:13:13.580 ,1,0,0.,12.0,0.,12.0,0.,12.0,0.,12.0
1979-07-02 15:13:25.580 ,1,0,1.,12.0,0.,12.0,0.,12.0,0.,12.0
1979-07-02 15:13:37.580 ,2,1,0.,12.0,0.,12.0,0.,12.0,0.,12.0
1979-07-02 15:13:49.580 ,2,1,0.,12.0,0.,12.0,0.,12.0,0.,12.0
1979-07-02 15:14:01.580 ,2,0,0.,12.0,0.,12.0,0.,12.0,0.,12.0
1979-07-02 15:14:13.580 ,2,0,0.,12.0,0.,12.0,0.,12.0,0.,12.0
1979-07-02 15:14:25.580 ,3,1,0.,12.0,0.,12.0,0.,12.0,0.,12.0
1979-07-02 15:14:37.580 ,3,1,0.,12.0,0.,12.0,0.,12.0,0.,12.0
1979-07-02 15:14:49.580 ,3,0,0.,12.0,0.,12.0,0.,12.0,0.,12.0
1979-07-02 15:15:01.580 ,3,0,0.,12.0,0.,12.0,0.,12.0,0.,12.0
1979-07-02 15:15:13.580 ,4,1,0.,12.0,0.,12.0,0.,12.0,0.,12.0
1979-07-02 15:15:25.580 ,4,1,0.,12.0,0.,12.0,0.,12.0,0.,12.0
1979-07-02 15:15:37.580 ,4,0,0.,12.0,0.,12.0,0.,12.0,0.,12.0
1979-07-02 15:15:49.580 ,4,0,0.,12.0,0.,12.0,0.,12.0,0.,12.0
1979-07-02 15:16:01.580 ,5,1,0.,12.0,0.,12.0,0.,12.0,0.,12.0
1979-07-02 15:16:13.580 ,5,1,0.,12.0,0.,12.0,0.,12.0,0.,12.0
1979-07-02 15:16:25.580 ,5,0,0.,12.0,0.,12.0,0.,12.0,0.,12.0
1979-07-02 15:16:37.580 ,5,0,0.,12.0,0.,12.0,0.,12.0,0.,12.0
1979-07-02 15:16:49.580 ,6,1,0.,12.0,0.,12.0,0.,12.0,0.,12.0
1979-07-02 15:17:01.580 ,6,1,0.,12.0,0.,12.0,0.,12.0,0.,12.0
1979-07-02 15:17:13.580 ,6,0,0.,12.0,0.,12.0,0.,12.0,0.,12.0
1979-07-02 15:17:25.580 ,6,0,0.,12.0,0.,12.0,0.,12.0,0.,12.0
1979-07-02 15:17:37.580 ,7,1,0.,12.0,0.,12.0,0.,12.0,0.,12.0
1979-07-02 15:17:49.580 ,7,1,0.,12.0,0.,12.0,0.,12.0,0.,12.0
1979-07-02 15:18:01.580 ,7,0,0.,12.0,0.,12.0,0.,12.0,0.,12.0
1979-07-02 15:18:13.580 ,7,0,0.,12.0,0.,12.0,0.,12.0,0.,12.0
1979-07-02 15:18:25.580 ,7,1,0.,12.0,0.,12.0,0.,12.0,0.,12.0
1979-07-02 15:18:37.580 ,7,1,0.,12.0,0.,12.0,0.,12.0,0.,12.0
1979-07-02 15:18:49.580 ,7,0,0.,12.0,0.,12.0,0.,12.0,0.,12.0
1979-07-02 15:19:01.580 ,7,0,0.,12.0,0.,12.0,0.,12.0,0.,12.0
1979-07-02 15:19:13.580 ,6,1,0.,12.0,0.,12.0,0.,12.0,0.,12.0
1979-07-02 15:19:25.580 ,6,1,0.,12.0,0.,12.0,0.,12.0,0.,12.0
1979-07-02 15:19:37.580 ,6,0,0.,12.0,0.,12.0,0.,12.0,0.,12.0
1979-07-02 15:19:49.580 ,6,0,0.,12.0,0.,12.0,0.,12.0,0.,12.0
1979-07-02 15:20:01.580 ,5,1,0.,12.0,0.,12.0,0.,12.0,0.,12.0
1979-07-02 15:20:13.580 ,5,1,0.,12.0,0.,12.0,0.,12.0,0.,12.0
1979-07-02 15:20:25.580 ,5,0,0.,12.0,0.,12.0,0.,12.0,0.,12.0
1979-07-02 15:20:37.580 ,5,0,0.,12.0,0.,12.0,0.,12.0,0.,12.0
1979-07-02 15:20:49.580 ,4,1,0.,12.0,0.,12.0,0.,12.0,0.,12.0
1979-07-02 15:21:01.580 ,4,1,0.,12.0,0.,12.0,0.,12.0,0.,12.0
1979-07-02 15:21:13.580 ,4,0,0.,12.0,0.,12.0,0.,12.0,0.,12.0
1979-07-02 15:21:25.580 ,4,0,0.,12.0,0.,12.0,0.,12.0,0.,12.0
1979-07-02 15:21:37.580 ,3,1,0.,12.0,0.,12.0,0.,12.0,0.,12.0
1979-07-02 15:21:49.580 ,3,1,0.,12.0,0.,12.0,0.,12.0,0.,12.0
1979-07-02 15:22:01.580 ,3,0,0.,12.0,0.,12.0,0.,12.0,0.,12.0
1979-07-02 15:22:13.580 ,3,0,0.,12.0,0.,12.0,0.,12.0,0.,12.0
1979-07-02 15:22:25.580 ,2,1,0.,12.0,0.,12.0,0.,12.0,0.,12.0
1979-07-02 15:22:37.580 ,2,1,0.,12.0,0.,12.0,0.,12.0,0.,12.0
1979-07-02 15:22:49.580 ,2,0,0.,12.0,0.,12.0,0.,12.0,0.,12.0
1979-07-02 15:23:01.580 ,2,0,0.,12.0,0.,12.0,0.,12.0,0.,12.0
1979-07-02 15:23:13.580 ,1,1,0.,12.0,0.,12.0,0.,12.0,0.,12.0
1979-07-02 15:23:25.580 ,1,1,0.,12.0,0.,12.0,0.,12.0,0.,12.0
1979-07-02 15:23:37.580 ,1,0,0.,12.0,0.,12.0,0.,12.0,0.,12.0
1979-07-02 15:23:49.580 ,1,0,0.,12.0,0.,12.0,0.,12.0,0.,12.0
1979-07-02 15:24:01.580 ,0,1,0.,12.0,0.,12.0,0.,12.0,0.,12.0
1979-07-02 15:24:13.580 ,0,1,0.,12.0,0.,12.0,0.,12.0,0.,12.0
1979-07-02 15:24:25.580 ,0,0,0.,12.0,0.,12.0,0.,12.0,0.,12.0
1979-07-02 15:24:37.580 ,0,0,0.,12.0,0.,12.0,0.,12.0,0.,12.0
1979-07-02 15:24:49.580 ,0,1,1.,12.0,0.,12.0,0.,12.0,0.,12.0
1979-07-02 15:25:01.580 ,0,1,0.,12.0,0.,12.0,0.,12.0,0.,12.0
1979-07-02 15:25:13.580 ,0,0,0.,12.0,0.,12.0,0.,12.0,0.,12.0
1979-07-02 15:25:25.580 ,0,0,0.,12.0,0.,12.0,0.,12.0,0.,12.0
1979-07-02 15:25:37.580 ,1,1,0.,12.0,0.,12.0,0.,12.0,0.,12.0
1979-07-02 15:25:49.580 ,1,1,0.,12.0,0.,12.0,0.,12.0,0.,12.0
1979-07-02 15:26:01.580 ,1,0,0.,12.0,0.,12.0,0.,12.0,0.,12.0
1979-07-02 15:26:13.580 ,1,0,0.,12.0,0.,12.0,0.,12.0,0.,12.0
1979-07-02 15:26:25.580 ,2,1,0.,12.0,0.,12.0,0.,12.0,0.,12.0
1979-07-02 15:26:37.580 ,2,1,0.,12.0,0.,12.0,0.,12.0,0.,12.0
1979-07-02 15:26:49.580 ,2,0,0.,12.0,0.,12.0,0.,12.0,0.,12.0
1979-07-02 15:27:01.580 ,2,0,0.,12.0,0.,12.0,0.,12.0,0.,12.0
1979-07-02 15:27:13.580 ,3,1,0.,12.0,0.,12.0,0.,12.0,0.,12.0
1979-07-02 15:27:25.580 ,3,1,0.,12.0,0.,12.0,0.,12.0,0.,12.0
1979-07-02 15:27:37.580 ,3,0,0.,12.0,0.,12.0,0.,12.0,0.,12.0
1979-07-02 15:27:49.580 ,3,0,0.,12.0,0.,12.0,0.,12.0,0.,12.0
1979-07-02 15:28:01.580 ,4,1,0.,12.0,0.,12.0,0.,12.0,0.,12.0
1979-07-02 15:28:13.580 ,4,1,0.,12.0,0.,12.0,0.,12.0,0.,12.0
1979-07-02 15:28:25.580 ,4,0,0.,12.0,0.,12.0,0.,12.0,0.,12.0
1979-07-02 15:28:37.580 ,4,0,0.,12.0,0.,12.0,0.,12.0,0.,12.0
1979-07-02 15:28:49.580 ,5,1,0.,12.0,0.,12.0,0.,12.0,0.,12.0
1979-07-02 15:29:01.580 ,5,1,0.,12.0,0.,12.0,0.,12.0,0.,12.0
1979-07-02 15:29:13.580 ,5,0,0.,12.0,0.,12.0,0.,12.0,0.,12.0
1979-07-02 15:29:25.580 ,5,0,0.,12.0,0.,12.0,0.,12.0,0.,12.0
1979-07-02 15:29:37.580 ,6,1,0.,12.0,0.,12.0,0.,12.0,0.,12.0
1979-07-02 15:29:49.580 ,6,1,0.,12.0,0.,12.0,0.,12.0,0.,12.0
1979-07-02 15:30:01.580 ,6,0,0.,12.0,0.,12.0,0.,12.0,0.,12.0
1979-07-02 15:30:13.580 ,6,0,0.,12.0,0.,12.0,0.,12.0,0.,12.0
1979-07-02 15:30:25.580 ,7,0,0.,12.0,0.,12.0,0.,12.0,0.,12.0
1979-07-02 15:30:37.580 ,7,0,0.,12.0,0.,12.0,0.,12.0,0.,12.0
1979-07-02 15:30:49.580 ,7,0,0.,12.0,0.,12.0,0.,12.0,0.,12.0
1979-07-02 15:31:01.580 ,7,0,0.,12.0,0.,12.0,0.,12.0,0.,12.0
1979-07-02 15:31:13.580 ,4,1,0.,12.0,0.,12.0,0.,12.0,0.,12.0
1979-07-02 15:31:25.580 ,4,1,0.,12.0,0.,12.0,0.,12.0,0.,12.0
1979-07-02 15:31:37.580 ,0,1,0.,12.0,0.,12.0,0.,12.0,0.,12.0
1979-07-02 15:31:49.580 ,0,1,0.,12.0,0.,12.0,0.,12.0,0.,12.0
1979-07-02 15:32:01.580 ,3,1,0.,12.0,0.,12.0,0.,12.0,0.,12.0
1979-07-02 15:32:13.580 ,3,1,0.,12.0,0.,12.0,0.,12.0,0.,12.0
1979-07-02 15:32:25.580 ,7,1,0.,12.0,0.,12.0,0.,12.0,0.,12.0
1979-07-02 15:32:37.580 ,7,1,0.,12.0,0.,12.0,0.,12.0,0.,12.0
1979-07-02 15:32:49.580 ,4,1,0.,12.0,0.,12.0,0.,12.0,0.,12.0
1979-07-02 15:33:01.580 ,4,1,0.,12.0,0.,12.0,0.,12.0,0.,12.0
1979-07-02 15:33:13.580 ,0,1,0.,12.0,0.,12.0,0.,12.0,0.,12.0
1979-07-02 15:33:25.580 ,0,1,0.,12.0,0.,12.0,0.,12.0,0.,12.0
1979-07-02 15:33:37.580 ,3,1,0.,12.0,0.,12.0,0.,12.0,0.,12.0
1979-07-02 15:33:49.580 ,3,1,0.,12.0,0.,12.0,0.,12.0,0.,12.0
1979-07-02 15:34:01.580 ,7,1,0.,12.0,0.,12.0,0.,12.0,0.,12.0
1979-07-02 15:34:13.580 ,7,1,0.,12.0,0.,12.0,0.,12.0,0.,12.0
1979-07-02 15:34:25.580 ,4,1,0.,12.0,0.,12.0,0.,12.0,0.,12.0
1979-07-02 15:34:37.580 ,4,1,0.,12.0,0.,12.0,0.,12.0,0.,12.0
1979-07-02 15:34:49.580 ,0,1,0.,12.0,0.,12.0,0.,12.0,0.,12.0
1979-07-02 15:35:01.580 ,0,1,0.,12.0,0.,12.0,0.,12.0,0.,12.0
1979-07-02 15:35:13.580 ,3,1,0.,12.0,0.,12.0,0.,12.0,0.,12.0
1979-07-02 15:35:25.580 ,3,1,1.,12.0,0.,12.0,0.,12.0,0.,12.0
1979-07-02 15:35:37.580 ,7,1,0.,12.0,0.,12.0,0.,12.0,0.,12.0
1979-07-02 15:35:49.580 ,7,1,0.,12.0,0.,12.0,0.,12.0,0.,12.0
1979-07-02 15:36:01.580 ,4,1,0.,12.0,0.,12.0,0.,12.0,0.,12.0
1979-07-02 15:36:13.580 ,4,1,0.,12.0,0.,12.0,0.,12.0,0.,12.0
1979-07-02 15:36:25.580 ,0,1,0.,12.0,0.,12.0,0.,12.0,0.,12.0
1979-07-02 15:36:37.580 ,0,1,0.,12.0,0.,12.0,0.,12.0,0.,12.0
1979-07-02 15:36:49.580 ,3,1,0.,12.0,0.,12.0,0.,12.0,0.,12.0
1979-07-02 15:37:01.580 ,3,1,0.,12.0,0.,12.0,0.,12.0,0.,12.0
1979-07-02 15:37:13.580 ,7,1,0.,12.0,0.,12.0,0.,12.0,0.,12.0
1979-07-02 15:37:25.580 ,7,1,0.,12.0,0.,12.0,0.,12.0,0.,12.0
1979-07-02 15:37:37.580 ,4,1,0.,12.0,0.,12.0,0.,12.0,0.,12.0
1979-07-02 15:37:49.580 ,4,1,0.,12.0,0.,12.0,0.,12.0,0.,12.0
1979-07-02 15:38:01.580 ,0,1,0.,12.0,0.,12.0,0.,12.0,0.,12.0
1979-07-02 15:38:13.580 ,0,1,0.,12.0,0.,12.0,0.,12.0,0.,12.0
1979-07-02 15:38:25.580 ,3,1,0.,12.0,0.,12.0,0.,12.0,0.,12.0
1979-07-02 15:38:37.580 ,3,1,0.,12.0,0.,12.0,0.,12.0,0.,12.0
1979-07-02 15:38:49.580 ,7,1,0.,12.0,0.,12.0,0.,12.0,0.,12.0
1979-07-02 15:39:01.580 ,7,1,0.,12.0,0.,12.0,0.,12.0,0.,12.0
1979-07-02 15:39:13.580 ,4,1,0.,12.0,0.,12.0,0.,12.0,0.,12.0
1979-07-02 15:39:25.580 ,4,1,0.,12.0,0.,12.0,0.,12.0,0.,12.0
1979-07-02 15:39:37.580 ,0,1,0.,12.0,0.,12.0,0.,12.0,0.,12.0
1979-07-02 15:39:49.580 ,0,1,0.,12.0,0.,12.0,0.,12.0,0.,12.0
1979-07-02 15:40:01.580 ,3,1,0.,12.0,0.,12.0,0.,12.0,0.,12.0
1979-07-02 15:40:13.580 ,3,1,0.,12.0,0.,12.0,0.,12.0,0.,12.0
1979-07-02 15:40:25.580 ,7,1,0.,12.0,0.,12.0,0.,12.0,0.,12.0
1979-07-02 15:40:37.580 ,7,1,0.,12.0,0.,12.0,0.,12.0,0.,12.0
1979-07-02 15:40:49.580 ,4,1,0.,12.0,0.,12.0,0.,12.0,0.,12.0
1979-07-02 15:41:01.580 ,4,1,0.,12.0,0.,12.0,0.,12.0,0.,12.0
1979-07-02 15:41:13.580 ,0,1,0.,12.0,0.,12.0,0.,12.0,0.,12.0
1979-07-02 15:41:25.580 ,0,1,0.,12.0,0.,12.0,0.,12.0,0.,12.0
1979-07-02 15:41:37.580 ,0,0,0.,12.0,0.,12.0,0.,12.0,0.,12.0
1979-07-02 15:41:49.580 ,0,0,1.,12.0,0.,12.0,0.,12.0,0.,12.0
1979-07-02 15:42:01.580 ,0,0,0.,12.0,0.,12.0,0.,12.0,0.,12.0
1979-07-02 15:42:13.580 ,0,0,1.,12.0,0.,12.0,0.,12.0,0.,12.0
1979-07-02 15:42:25.580 ,5,1,0.,12.0,0.,12.0,0.,12.0,0.,12.0
1979-07-02 15:42:37.580 ,5,1,0.,12.0,0.,12.0,0.,12.0,0.,12.0
1979-07-02 15:42:49.580 ,5,0,0.,12.0,0.,12.0,0.,12.0,0.,12.0
1979-07-02 15:43:01.580 ,5,0,0.,12.0,0.,12.0,0.,12.0,0.,12.0
1979-07-02 15:43:13.580 ,4,1,0.,12.0,0.,12.0,0.,12.0,0.,12.0
1979-07-02 15:43:25.580 ,4,1,0.,12.0,0.,12.0,0.,12.0,0.,12.0
1979-07-02 15:43:37.580 ,4,0,0.,12.0,0.,12.0,0.,12.0,0.,12.0
1979-07-02 15:43:49.580 ,4,0,0.,12.0,0.,12.0,0.,12.0,0.,12.0
1979-07-02 15:44:01.580 ,3,1,0.,12.0,0.,12.0,0.,12.0,0.,12.0
1979-07-02 15:44:13.580 ,3,1,0.,12.0,0.,12.0,0.,12.0,0.,12.0
1979-07-02 15:44:25.580 ,3,0,1.,12.0,0.,12.0,0.,12.0,0.,12.0
1979-07-02 15:44:37.580 ,3,0,0.,12.0,0.,12.0,0.,12.0,0.,12.0
1979-07-02 15:44:49.580 ,2,1,0.,12.0,0.,12.0,0.,12.0,0.,12.0
1979-07-02 15:45:01.580 ,2,1,0.,12.0,0.,12.0,0.,12.0,0.,12.0
1979-07-02 15:45:13.580 ,2,0,0.,12.0,0.,12.0,0.,12.0,0.,12.0
1979-07-02 15:45:25.580 ,2,0,0.,12.0,0.,12.0,0.,12.0,0.,12.0
1979-07-02 15:45:37.580 ,1,1,0.,12.0,0.,12.0,0.,12.0,0.,12.0
1979-07-02 15:45:49.580 ,1,1,0.,12.0,0.,12.0,0.,12.0,0.,12.0
1979-07-02 15:46:01.580 ,1,0,0.,12.0,0.,12.0,0.,12.0,0.,12.0
1979-07-02 15:46:13.580 ,1,0,0.,12.0,0.,12.0,0.,12.0,0.,12.0
1979-07-02 15:46:25.580 ,0,1,0.,12.0,0.,12.0,0.,12.0,0.,12.0
1979-07-02 15:46:37.580 ,0,1,0.,12.0,0.,12.0,0.,12.0,0.,12.0
1979-07-02 15:46:49.580 ,0,0,0.,12.0,0.,12.0,0.,12.0,0.,12.0
1979-07-02 15:47:01.580 ,0,0,0.,12.0,0.,12.0,0.,12.0,0.,12.0
1979-07-02 15:47:13.580 ,0,1,0.,12.0,0.,12.0,0.,12.0,0.,12.0
1979-07-02 15:47:25.580 ,0,1,0.,12.0,0.,12.0,0.,12.0,0.,12.0
1979-07-02 15:47:37.580 ,0,0,0.,12.0,0.,12.0,0.,12.0,0.,12.0
1979-07-02 15:47:49.580 ,0,0,0.,12.0,0.,12.0,0.,12.0,0.,12.0
1979-07-02 15:48:01.580 ,1,1,0.,12.0,0.,12.0,0.,12.0,0.,12.0
1979-07-02 15:48:13.580 ,1,1,0.,12.0,0.,12.0,0.,12.0,0.,12.0
1979-07-02 15:48:25.580 ,1,0,0.,12.0,0.,12.0,0.,12.0,0.,12.0
1979-07-02 15:48:37.580 ,1,0,1.,12.0,0.,12.0,0.,12.0,0.,12.0
1979-07-02 15:48:49.580 ,2,1,0.,12.0,0.,12.0,0.,12.0,0.,12.0
1979-07-02 15:49:01.580 ,2,1,0.,12.0,0.,12.0,0.,12.0,0.,12.0
1979-07-02 15:49:13.580 ,2,0,0.,12.0,0.,12.0,0.,12.0,0.,12.0
1979-07-02 15:49:25.580 ,2,0,0.,12.0,0.,12.0,0.,12.0,0.,12.0
1979-07-02 15:49:37.580 ,3,1,0.,12.0,0.,12.0,0.,12.0,0.,12.0
1979-07-02 15:49:49.580 ,3,1,0.,12.0,0.,12.0,0.,12.0,0.,12.0
1979-07-02 15:50:01.580 ,3,0,0.,12.0,0.,12.0,0.,12.0,0.,12.0
1979-07-02 15:50:13.580 ,3,0,0.,12.0,0.,12.0,0.,12.0,0.,12.0
1979-07-02 15:50:25.580 ,4,1,0.,12.0,0.,12.0,0.,12.0,0.,12.0
1979-07-02 15:50:37.580 ,4,1,0.,12.0,0.,12.0,0.,12.0,0.,12.0
1979-07-02 15:50:49.580 ,4,0,0.,12.0,0.,12.0,0.,12.0,0.,12.0
1979-07-02 15:51:01.580 ,4,0,0.,12.0,0.,12.0,0.,12.0,0.,12.0
1979-07-02 15:51:13.580 ,5,1,0.,12.0,0.,12.0,0.,12.0,0.,12.0
1979-07-02 15:51:25.580 ,5,1,0.,12.0,0.,12.0,0.,12.0,0.,12.0
1979-07-02 15:51:37.580 ,5,0,0.,12.0,0.,12.0,0.,12.0,0.,12.0
1979-07-02 15:51:49.580 ,5,0,0.,12.0,0.,12.0,0.,12.0,0.,12.0
1979-07-02 15:52:01.580 ,6,1,0.,12.0,0.,12.0,0.,12.0,0.,12.0
1979-07-02 15:52:13.580 ,6,1,0.,12.0,0.,12.0,0.,12.0,0.,12.0
1979-07-02 15:52:25.580 ,6,0,0.,12.0,0.,12.0,0.,12.0,0.,12.0
1979-07-02 15:52:37.580 ,6,0,0.,12.0,0.,12.0,0.,12.0,0.,12.0
1979-07-02 15:52:49.580 ,7,1,0.,12.0,0.,12.0,0.,12.0,0.,12.0
1979-07-02 15:53:01.580 ,7,1,0.,12.0,0.,12.0,0.,12.0,0.,12.0
1979-07-02 15:53:13.580 ,7,0,0.,12.0,0.,12.0,0.,12.0,0.,12.0
1979-07-02 15:53:25.580 ,7,0,0.,12.0,0.,12.0,0.,12.0,0.,12.0
1979-07-02 15:53:37.580 ,7,1,0.,12.0,0.,12.0,0.,12.0,0.,12.0
1979-07-02 15:53:49.580 ,7,1,0.,12.0,0.,12.0,0.,12.0,0.,12.0
1979-07-02 15:54:01.580 ,7,0,0.,12.0,0.,12.0,0.,12.0,0.,12.0
1979-07-02 15:54:13.580 ,7,0,0.,12.0,0.,12.0,0.,12.0,0.,12.0
1979-07-02 15:54:25.580 ,6,1,0.,12.0,0.,12.0,0.,12.0,0.,12.0
1979-07-02 15:54:37.580 ,6,1,0.,12.0,0.,12.0,0.,12.0,0.,12.0
1979-07-02 15:54:49.580 ,6,0,0.,12.0,0.,12.0,0.,12.0,0.,12.0
1979-07-02 15:55:01.580 ,6,0,0.,12.0,0.,12.0,0.,12.0,0.,12.0
1979-07-02 15:55:13.580 ,5,1,0.,12.0,0.,12.0,0.,12.0,0.,12.0
1979-07-02 15:55:25.580 ,5,1,0.,12.0,0.,12.0,0.,12.0,0.,12.0
1979-07-02 15:55:37.580 ,5,0,0.,12.0,0.,12.0,0.,12.0,0.,12.0
1979-07-02 15:55:49.580 ,5,0,0.,12.0,0.,12.0,0.,12.0,0.,12.0
1979-07-02 15:56:01.580 ,4,1,0.,12.0,0.,12.0,0.,12.0,0.,12.0
1979-07-02 15:56:13.580 ,4,1,0.,12.0,0.,12.0,0.,12.0,0.,12.0
1979-07-02 15:56:25.580 ,4,0,0.,12.0,0.,12.0,0.,12.0,0.,12.0
1979-07-02 15:56:37.580 ,4,0,0.,12.0,0.,12.0,0.,12.0,0.,12.0
1979-07-02 15:56:49.580 ,3,1,0.,12.0,0.,12.0,0.,12.0,0.,12.0
1979-07-02 15:57:01.580 ,3,1,0.,12.0,0.,12.0,0.,12.0,0.,12.0
1979-07-02 15:57:13.580 ,3,0,0.,12.0,0.,12.0,0.,12.0,0.,12.0
1979-07-02 15:57:25.580 ,3,0,0.,12.0,0.,12.0,0.,12.0,0.,12.0
1979-07-02 15:57:37.580 ,2,1,0.,12.0,0.,12.0,0.,12.0,0.,12.0
1979-07-02 15:57:49.580 ,2,1,0.,12.0,0.,12.0,0.,12.0,0.,12.0
1979-07-02 15:58:01.580 ,2,0,0.,12.0,0.,12.0,0.,12.0,0.,12.0
1979-07-02 15:58:13.580 ,2,0,0.,12.0,0.,12.0,0.,12.0,0.,12.0
1979-07-02 15:58:25.580 ,1,1,0.,12.0,0.,12.0,0.,12.0,0.,12.0
1979-07-02 15:58:37.580 ,1,1,0.,12.0,0.,12.0,0.,12.0,0.,12.0
1979-07-02 15:58:49.580 ,1,0,0.,12.0,0.,12.0,0.,12.0,0.,12.0
1979-07-02 15:59:01.580 ,1,0,1.,12.0,0.,12.0,0.,12.0,0.,12.0
1979-07-02 15:59:13.580 ,0,1,0.,12.0,0.,12.0,0.,12.0,0.,12.0
1979-07-02 15:59:25.580 ,0,1,0.,12.0,0.,12.0,0.,12.0,0.,12.0
1979-07-02 15:59:37.580 ,0,0,0.,12.0,0.,12.0,0.,12.0,0.,12.0
1979-07-02 15:59:49.580 ,0,0,0.,12.0,0.,12.0,0.,12.0,0.,12.0
1979-07-02 16:00:01.580 ,0,1,0.,12.0,0.,12.0,0.,12.0,0.,12.0
1979-07-02 16:00:13.580 ,0,1,0.,12.0,0.,12.0,0.,12.0,0.,12.0
1979-07-02 16:00:25.580 ,0,0,0.,12.0,0.,12.0,0.,12.0,0.,12.0
1979-07-02 16:00:37.580 ,0,0,0.,12.0,0.,12.0,0.,12.0,0.,12.0
1979-07-02 16:00:49.580 ,1,1,0.,12.0,0.,12.0,0.,12.0,0.,12.0
1979-07-02 16:01:01.580 ,1,1,0.,12.0,0.,12.0,0.,12.0,0.,12.0
1979-07-02 16:01:13.580 ,1,0,0.,12.0,0.,12.0,0.,12.0,0.,12.0
1979-07-02 16:01:25.580 ,1,0,0.,12.0,0.,12.0,0.,12.0,0.,12.0
1979-07-02 16:01:37.580 ,2,1,0.,12.0,0.,12.0,0.,12.0,0.,12.0
1979-07-02 16:01:49.580 ,2,1,0.,12.0,0.,12.0,0.,12.0,0.,12.0
1979-07-02 16:02:01.580 ,2,0,0.,12.0,0.,12.0,0.,12.0,0.,12.0
1979-07-02 16:02:13.580 ,2,0,0.,12.0,0.,12.0,0.,12.0,0.,12.0
1979-07-02 16:02:25.580 ,3,1,0.,12.0,0.,12.0,0.,12.0,0.,12.0
1979-07-02 16:02:37.580 ,3,1,0.,12.0,0.,12.0,0.,12.0,0.,12.0
1979-07-02 16:02:49.580 ,3,0,0.,12.0,0.,12.0,0.,12.0,0.,12.0
1979-07-02 16:03:01.580 ,3,0,0.,12.0,0.,12.0,0.,12.0,0.,12.0
1979-07-02 16:03:13.580 ,4,1,0.,12.0,0.,12.0,0.,12.0,0.,12.0
1979-07-02 16:03:25.580 ,4,1,0.,12.0,0.,12.0,0.,12.0,0.,12.0
1979-07-02 16:03:37.580 ,4,0,0.,12.0,0.,12.0,0.,12.0,0.,12.0
1979-07-02 16:03:49.580 ,4,0,1.,12.0,0.,12.0,0.,12.0,0.,12.0
1979-07-02 16:04:01.580 ,5,1,0.,12.0,0.,12.0,0.,12.0,0.,12.0
1979-07-02 16:04:13.580 ,5,1,0.,12.0,0.,12.0,0.,12.0,0.,12.0
1979-07-02 16:04:25.580 ,5,0,1.,12.0,0.,12.0,0.,12.0,1.,12.0
1979-07-02 16:04:37.580 ,5,0,0.,12.0,0.,12.0,0.,12.0,0.,12.0
1979-07-02 16:04:49.580 ,6,1,0.,12.0,0.,12.0,0.,12.0,0.,12.0
1979-07-02 16:05:01.580 ,6,1,0.,12.0,0.,12.0,0.,12.0,0.,12.0
1979-07-02 16:05:13.580 ,6,0,0.,12.0,0.,12.0,0.,12.0,0.,12.0
1979-07-02 16:05:25.580 ,6,0,0.,12.0,0.,12.0,0.,12.0,0.,12.0
1979-07-02 16:05:37.580 ,7,1,0.,12.0,0.,12.0,0.,12.0,0.,12.0
1979-07-02 16:05:49.580 ,7,1,0.,12.0,0.,12.0,0.,12.0,0.,12.0
1979-07-02 16:06:01.580 ,7,0,0.,12.0,0.,12.0,0.,12.0,0.,12.0
1979-07-02 16:06:13.580 ,7,0,0.,12.0,0.,12.0,0.,12.0,0.,12.0
1979-07-02 16:06:25.580 ,7,1,0.,12.0,0.,12.0,0.,12.0,0.,12.0
1979-07-02 16:06:37.580 ,7,1,0.,12.0,0.,12.0,0.,12.0,0.,12.0
1979-07-02 16:06:49.580 ,7,0,0.,12.0,0.,12.0,0.,12.0,0.,12.0
1979-07-02 16:07:01.580 ,7,0,0.,12.0,0.,12.0,0.,12.0,0.,12.0
1979-07-02 16:07:13.580 ,6,1,0.,12.0,0.,12.0,0.,12.0,0.,12.0
1979-07-02 16:07:25.580 ,6,1,0.,12.0,0.,12.0,0.,12.0,0.,12.0
1979-07-02 16:07:37.580 ,6,0,0.,12.0,0.,12.0,0.,12.0,0.,12.0
1979-07-02 16:07:49.580 ,6,0,0.,12.0,0.,12.0,0.,12.0,0.,12.0
1979-07-02 16:08:01.580 ,5,1,0.,12.0,0.,12.0,0.,12.0,0.,12.0
1979-07-02 16:08:13.580 ,5,1,0.,12.0,0.,12.0,0.,12.0,0.,12.0
1979-07-02 16:08:25.580 ,5,0,0.,12.0,0.,12.0,0.,12.0,0.,12.0
1979-07-02 16:08:37.580 ,5,0,0.,12.0,0.,12.0,0.,12.0,0.,12.0
1979-07-02 16:08:49.580 ,4,1,0.,12.0,0.,12.0,0.,12.0,0.,12.0
1979-07-02 16:09:01.580 ,4,1,0.,12.0,0.,12.0,0.,12.0,0.,12.0
1979-07-02 16:09:13.580 ,4,0,0.,12.0,0.,12.0,0.,12.0,0.,12.0
1979-07-02 16:09:25.580 ,4,0,0.,12.0,0.,12.0,0.,12.0,0.,12.0
1979-07-02 16:09:37.580 ,3,1,0.,12.0,0.,12.0,0.,12.0,0.,12.0
1979-07-02 16:09:49.580 ,3,1,0.,12.0,0.,12.0,0.,12.0,0.,12.0
1979-07-02 16:10:01.580 ,3,0,1.,12.0,0.,12.0,0.,12.0,0.,12.0
1979-07-02 16:10:13.580 ,3,0,0.,12.0,0.,12.0,0.,12.0,0.,12.0
1979-07-02 16:10:25.580 ,2,1,0.,12.0,0.,12.0,0.,12.0,0.,12.0
1979-07-02 16:10:37.580 ,2,1,0.,12.0,0.,12.0,0.,12.0,0.,12.0
1979-07-02 16:10:49.580 ,2,0,1.,12.0,0.,12.0,0.,12.0,0.,12.0
1979-07-02 16:11:01.580 ,2,0,0.,12.0,0.,12.0,0.,12.0,0.,12.0
1979-07-02 16:11:13.580 ,1,1,0.,12.0,0.,12.0,0.,12.0,0.,12.0
1979-07-02 16:11:25.580 ,1,1,0.,12.0,0.,12.0,0.,12.0,0.,12.0
1979-07-02 16:11:37.580 ,1,0,0.,12.0,0.,12.0,0.,12.0,0.,12.0
1979-07-02 16:11:49.580 ,1,0,0.,12.0,0.,12.0,0.,12.0,0.,12.0
1979-07-02 16:12:01.580 ,0,1,1.,12.0,0.,12.0,0.,12.0,0.,12.0
1979-07-02 16:12:13.580 ,0,1,0.,12.0,0.,12.0,0.,12.0,0.,12.0
1979-07-02 16:12:25.580 ,0,0,0.,12.0,0.,12.0,0.,12.0,0.,12.0
1979-07-02 16:12:37.580 ,0,0,0.,12.0,0.,12.0,0.,12.0,0.,12.0
1979-07-02 16:12:49.580 ,0,1,0.,12.0,0.,12.0,0.,12.0,0.,12.0
1979-07-02 16:13:01.580 ,0,1,0.,12.0,0.,12.0,0.,12.0,0.,12.0
1979-07-02 16:13:13.580 ,0,0,0.,12.0,0.,12.0,0.,12.0,0.,12.0
1979-07-02 16:13:25.580 ,0,0,0.,12.0,0.,12.0,0.,12.0,0.,12.0
1979-07-02 16:13:37.580 ,1,1,0.,12.0,0.,12.0,0.,12.0,0.,12.0
1979-07-02 16:13:49.580 ,1,1,0.,12.0,0.,12.0,0.,12.0,0.,12.0
1979-07-02 16:14:01.580 ,1,0,0.,12.0,0.,12.0,0.,12.0,0.,12.0
1979-07-02 16:14:13.580 ,1,0,0.,12.0,0.,12.0,0.,12.0,0.,12.0
1979-07-02 16:14:25.580 ,2,1,0.,12.0,0.,12.0,0.,12.0,0.,12.0
1979-07-02 16:14:37.580 ,2,1,0.,12.0,0.,12.0,0.,12.0,0.,12.0
1979-07-02 16:14:49.580 ,2,0,0.,12.0,0.,12.0,0.,12.0,0.,12.0
1979-07-02 16:15:01.580 ,2,0,0.,12.0,0.,12.0,0.,12.0,0.,12.0
1979-07-02 16:15:13.580 ,3,1,0.,12.0,0.,12.0,0.,12.0,0.,12.0
1979-07-02 16:15:25.580 ,3,1,0.,12.0,0.,12.0,0.,12.0,0.,12.0
1979-07-02 16:15:37.580 ,3,0,0.,12.0,0.,12.0,0.,12.0,0.,12.0
1979-07-02 16:15:49.580 ,3,0,0.,12.0,0.,12.0,0.,12.0,0.,12.0
1979-07-02 16:16:01.580 ,4,1,0.,12.0,0.,12.0,0.,12.0,0.,12.0
1979-07-02 16:16:13.580 ,4,1,0.,12.0,0.,12.0,0.,12.0,0.,12.0
1979-07-02 16:16:25.580 ,4,0,0.,12.0,0.,12.0,0.,12.0,0.,12.0
1979-07-02 16:16:37.580 ,4,0,0.,12.0,0.,12.0,0.,12.0,0.,12.0
1979-07-02 16:16:49.580 ,5,1,0.,12.0,0.,12.0,0.,12.0,0.,12.0
1979-07-02 16:17:01.580 ,5,1,0.,12.0,0.,12.0,0.,12.0,0.,12.0
1979-07-02 16:17:13.580 ,5,0,0.,12.0,0.,12.0,0.,12.0,0.,12.0
1979-07-02 16:17:25.580 ,5,0,0.,12.0,0.,12.0,0.,12.0,0.,12.0